Location: Cicognara
(44.9500°N, 10.4667°E)
Time: 07:13:53
(UTC+00:00)

Cosmos 1892 - Pass Details

Date: 20 June 2021
Orbit: 501 x 524 km, 82.5° (Epoch: 28 July)

Event Time Altitude Azimuth Distance (km) Brightness Sun altitude
Exits shadow 23:30:02 58° 107° (ESE) 617 2.9 -21.6°
Maximum altitude 23:30:11 59° 95° (E) 614 2.9 -21.6°
Drops below altitude 10° 23:34:01 10° 16° (NNE) 1,774 6.5 -21.5°
Sets 23:36:11 0° 13° (NNE) 2,667 7.8 -21.5°
